Volver al catálogo

STARLINK-33654

ActivoComunicacionesVLEO
NORAD 63466·PAYLOAD·🇺🇸 United States

Lanzado Apr 6, 2025 desde Cape Canaveral Space Force Station

Loading…

Próximos Pases (próximas 24 horas)

TLE

ActualizadoSource: CelesTrak SupGP

Época: Sep 14, 2026, 22:31 UTC

1 63466C 25070G   26257.93868056  .00028736  00000+0  10411-2 0  2577
2 63466  43.0022 271.0348 0001515 265.5065 305.1044 15.27554114    17

Sigue STARLINK-33654 en tiempo real con AllMySat

Download on the App Store